Regional Weather Roundup
Issued by NWS

Home | Current Version | Previous Version | Text Only | Print | Product List | Glossary Off
Versions: 1 2 3 4 5 6 7 8 9 10 11 12 13 14 15 16 17 18 19 20 21 22 23 24 25 26 27 28 29 30 31 32 33 34 35 36 37 38 39 40 41 42 43 44 45 46 47 48 49 50

000
ASUS43 KMPX 301401
RWRMN
WEATHER ROUNDUP FOR MINNESOTA
NATIONAL WEATHER SERVICE TWIN CITIES/CHANHASSEN MN
900 AM CDT MON MAR 30 2015


NOTE: "FAIR" INDICATES FEW OR NO CLOUDS BELOW 12,000 FEET WITH NO
SIGNIFICANT WEATHER AND/OR OBSTRUCTIONS TO VISIBILITY. N/A MEANS
CURRENT SKY AND/OR WEATHER CONDITIONS ARE NOT AVAILABLE.

MNZ060>063-068>070-301500-
   Twin Cities Metro

CITY           SKY/WX    TMP DP  RH WIND       PRES   REMARKS
TWIN CITIES    CLOUDY    39  28  64 SW6       29.96F
ST PAUL        CLOUDY    39  30  70 CALM      29.97F
CRYSTAL        CLOUDY    41  29  62 CALM      29.95S
BLAINE         PTSUNNY   39  30  70 CALM      29.95F
LAKEVILLE      PTSUNNY   37  28  70 CALM      29.96S
EDEN PRAIRIE   CLOUDY    38  29  70 SW6       29.96S
SOUTH ST PAUL  CLOUDY    41  28  60 CALM      29.96S
LAKE ELMO      PTSUNNY   41  30  65 CALM      29.97S
$$
MNZ001>005-007-008-013>017-022>024-027-028-301500-
   Northwest Minnesota

CITY           SKY/WX    TMP DP  RH WIND       PRES   REMARKS
BEMIDJI        CLOUDY    33  29  84 SW3       29.90R
HALLOCK        CLOUDY    37  34  87 CALM      29.86F
ROSEAU         CLOUDY    36  30  80 SW3       29.86F
WARROAD        CLOUDY    34  30  86 SW3       29.87S
THIEF RVR FALL CLOUDY    43  32  65 N8        29.88F
CROOKSTON      CLOUDY    36  30  80 E7        29.88S
FOSSTON        CLOUDY    34  32  93 CALM      29.89F
DETROIT LAKES  CLOUDY    37  32  81 SE3       29.90S
MOORHEAD       CLOUDY    37  36  93 E7        29.86F
PARK RAPIDS    CLOUDY    37  32  82 CALM      29.90R
MAHNOMEN       CLOUDY    34  31  88 SE3       29.89S
$$
MNZ006-009>011-018-025>026-301500-
   North Central Minnesota

CITY           SKY/WX    TMP DP  RH WIND       PRES   REMARKS
BAUDETTE       PTSUNNY   34  29  82 S3        29.86F
FLAG ISLAND    MOSUNNY   28  27  93 SE5       29.85S WCI  23
INTL FALLS     SUNNY     35  27  72 CALM      29.88R
WASKISH        PTSUNNY   34  30  86 CALM      29.88S
BIG FORK       MOSUNNY   36  30  80 CALM      29.89S
LONGVILLE      CLOUDY    36  30  80 CALM      29.90S
GRAND RAPIDS   MOSUNNY   37  27  65 W3        29.90S
CRANE LAKE     SUNNY     30  27  86 S2        29.89F
ORR            SUNNY     34  25  69 CALM      29.86S
COOK           SUNNY     34  27  75 CALM      29.88F
WALKER         CLOUDY    32  29  89 CALM      29.89S
$$
MNZ012-019>021-037-301500-
   Northeast Minnesota

CITY           SKY/WX    TMP DP  RH WIND       PRES   REMARKS
DULUTH         MOSUNNY   40  26  57 W6        29.90R
ELY            SUNNY     34  27  75 W5        29.87S WCI  30
HIBBING        MOSUNNY   39  27  62 CALM      29.89S
EVELETH        SUNNY     36  28  75 W3        29.89F
DULUTH HARBOR  SUNNY     37  28  70 CALM      29.93S
TWO HARBORS    SUNNY     43  28  56 W5        29.88S
SILVER BAY     SUNNY     41  27  56 SW3       29.87S
GRAND MARAIS     N/A     36  28  73 SW6       29.89R
G MARAIS ARPRT SUNNY     34  19  55 CALM      29.85R
$$
MNZ029>031-032-039>041-046>048-054>057-064-301500-
   West Central Minnesota

CITY           SKY/WX    TMP DP  RH WIND       PRES   REMARKS
FERGUS FALLS   CLOUDY    37  28  70 E3        29.88F
WHEATON        CLOUDY    37  30  75 SE6       29.89F
MORRIS         CLOUDY    36  30  80 SE8       29.89S
ALEXANDRIA     CLOUDY    38  29  70 E3        29.89F
ELBOW LAKE     CLOUDY    35  30  81 E5        29.87F WCI  31
WADENA         CLOUDY    36  28  75 CALM      29.90S
GLENWOOD       CLOUDY    37  34  87 E3        29.90F
APPLETON       CLOUDY    39  28  65 SE6       29.90S
BENSON         CLOUDY    37  28  70 CALM      29.91S
ORTONVILLE     CLOUDY    37  28  70 SE3       29.89S
MADISON        CLOUDY    43  30  61 SE3       29.90S
WILLMAR        FAIR      36  30  80 SE5       29.93F
$$
MNZ033>034-036-042>043-049>051-058-059-301500-
   Central Minnesota

CITY           SKY/WX    TMP DP  RH WIND       PRES   REMARKS
ST CLOUD       CLOUDY    35  30  82 CALM      29.93F
SAUK CENTRE    CLOUDY    35  32  87 CALM      29.91F
PAYNESVILLE    CLOUDY    34  28  80 CALM      29.92F
AITKIN         PTSUNNY   41  30  65 CALM      29.90S
PINE RIVER     CLOUDY    32  30  93 CALM      29.94R
BRAINERD       CLOUDY    35  28  75 CALM      29.92S
STAPLES        CLOUDY    36  30  80 CALM      29.91S
LONG PRAIRIE   CLOUDY    34  30  86 CALM      29.92S
LITTLE FALLS   CLOUDY    36  30  80 CALM      29.93S
LITCHFIELD     CLOUDY    39  28  65 CALM      29.93F
MAPLE LAKE     CLOUDY    40  32  73 CALM      29.94F
$$
MNZ037-044-045-052-053-301500-
   East Central Minnesota

CITY           SKY/WX    TMP DP  RH WIND       PRES   REMARKS
PRINCETON      CLOUDY    37  30  75 CALM      29.95S
MORA           PTSUNNY   36  28  75 CALM      29.95F
CAMBRIDGE      CLOUDY    39  28  65 CALM      29.93S
RUSH CITY      CLOUDY    39  30  69 CALM      29.94S
MOOSE LAKE     MOSUNNY   37  28  70 CALM      29.90F
HINCKLEY       FAIR      37  32  81 CALM      29.93S
CLOQUET        MOSUNNY   39  27  60 CALM      29.90F
MCGREGOR       SUNNY     36  30  80 CALM      29.92S
$$
MNZ071>073-080-081-089-090-097-098-301500-
   Southwest Minnesota

CITY           SKY/WX    TMP DP  RH WIND       PRES   REMARKS
MONTEVIDEO     CLOUDY    39  30  70 CALM      29.92F
GRANITE FALLS  CLOUDY    41  29  62 SE5       29.92F
CANBY          CLOUDY    49  24  37 SW15      29.91F
MARSHALL       PTSUNNY   50  23  34 SW18G24   29.91F
REDWOOD FALLS  CLOUDY    40  30  67 SE6       29.93F
OLIVIA         CLOUDY    34  30  86 S5        29.92F WCI  30
PIPESTONE      SUNNY     43  27  52 S6        29.94F
WINDOM         PTSUNNY   43  25  49 CALM      29.96F
WORTHINGTON    MOSUNNY   45  23  42 SW12      29.98F
JACKSON        PTSUNNY   43  25  49 S8        29.98F
TRACY          PTSUNNY   47  26  44 SW16      29.93F
SLAYTON        MOSUNNY   44  20  39 SW14      29.95F
$$
MNZ065>067-074>077-082>085-091>093-301500-
   South Central Minnesota

CITY           SKY/WX    TMP DP  RH WIND       PRES   REMARKS
MANKATO        CLOUDY    43  27  52 SW9       29.96F
NEW ULM        CLOUDY    43  27  52 CALM      29.95F
ST JAMES       PTSUNNY   46  27  46 S3        29.97F
FAIRMONT       CLOUDY    46  21  36 SW12      29.97F
GLENCOE        CLOUDY    38  32  79 CALM      29.95S
FARIBAULT      MOSUNNY   39  28  65 CALM      29.97F
OWATONNA       MOSUNNY   39  28  65 SW3       29.98F
WASECA         PTSUNNY   37  30  75 S6        30.00F
ALBERT LEA     PTSUNNY   46  25  42 SW12G17   29.98F
$$
MNZ078>079-086>088-094>096-301500-
   Southeast Minnesota

CITY           SKY/WX    TMP DP  RH WIND       PRES   REMARKS
ROCHESTER      MOSUNNY   40  29  64 W13       29.99F
RED WING       PTSUNNY   39  28  65 CALM      29.97F
STANTON        PTSUNNY   38  30  71 S5        29.95F
DODGE CENTER   MOSUNNY   39  30  70 W8        29.97F
WINONA         MOSUNNY   41  30  65 CALM        N/A
AUSTIN         MOSUNNY   43  28  56 SW6       29.99F
PRESTON        SUNNY     42  28  58 W15       30.00F
$$
ABBREVIATIONS USED IN REMARKS
   TC - TEMPERATURES IN CELSIUS
  WCI - WIND CHILL INDEX
   HX - HEAT INDEX
  VSB - VISIBILITY
$$



USA.gov is the U.S. government's official web portal to all federal, state and local government web resources and services.